"Pseudo-MPEC" for CCNATW2

Created 2025 Jan 22 23:31:09 UT using Find_Orb

Click here for an explanation of pseudo-MPECs

 
 Astrometry: 
     CCNATW2*1C2025 01 03.28783705 48 22.169+18 29 12.80   ~137V 20.74GVNEOCPG96
     CCNATW2 1C2025 01 03.29301005 48 22.162+18 29 16.26   ~137V 21.25GVNEOCPG96
     CCNATW2 1C2025 01 03.29819205 48 22.172+18 29 19.50   ~137V 21.59GVNEOCPG96

Station data:
(G96) Mt. Lemmon Survey  (N32.442729 W110.788720)  US/Arizona.  Observer E.
   J. Christensen.  + 10K CCD.

Orbital elements:  CCNATW2
   Perihelion 2025 Jan 11.48039 +/- 44.6 TT = 11:31:45 (JD 2460686.98039)
Epoch 2025 Jan  3.0 TT = JDT 2460678.5   Earth MOID: 0.3612   Ma: 0.0471
M 357.55651267 +/- 19               (J2000 ecliptic)             AutoNEOCP
n   0.28813390 +/- 0.271            Peri.  345.40758 +/- 70
a   2.27024714 +/- 1.42             Node   119.23484 +/- 58
e   0.4079813 +/- 0.244             Incl.    3.86583 +/- 2.5
P   3.42066                H 22.25  G  0.15   U 11.9  SR
q 1.34402876 +/- 0.423    Q 3.19646553 +/- 51.5
From 3 observations 2025 Jan. 3 (14.9 min); mean residual 0".06
Residuals in arcseconds: 
250103 G96  .02+  .01-    250103 G96  .08-  .10+    250103 G96  .06+  .01-    

Ephemerides (geocentric):
Date (UTC) HH   RA             Dec           delta  r     elong  mag " sig PA
---- --------  ------------   ------------  ------ ------ -----  --- --------
2025 01 23 00  05 59 11.641   +22 07 51.45  .41209 1.3484 146.9 22.1  39d  83
2025 01 23 01  05 59 14.141   +22 08 17.41  .41222 1.3485 146.9 22.1  39d  83
2025 01 23 02  05 59 16.646   +22 08 43.35  .41235 1.3485 146.8 22.1  39d  83
2025 01 23 03  05 59 19.156   +22 09 09.28  .41248 1.3485 146.8 22.1  39d  83
2025 01 23 04  05 59 21.671   +22 09 35.19  .41262 1.3486 146.8 22.1  39d  83
2025 01 23 05  05 59 24.191   +22 10 01.09  .41275 1.3486 146.8 22.1  39d  83
2025 01 23 06  05 59 26.716   +22 10 26.97  .41288 1.3486 146.7 22.1  39d  83
2025 01 23 07  05 59 29.246   +22 10 52.83  .41301 1.3487 146.7 22.1  39d  83
2025 01 23 08  05 59 31.781   +22 11 18.68  .41315 1.3487 146.7 22.1  39d  83
2025 01 23 09  05 59 34.321   +22 11 44.51  .41328 1.3487 146.6 22.1  39d  83
2025 01 23 10  05 59 36.866   +22 12 10.33  .41341 1.3488 146.6 22.1  39d  83
2025 01 23 11  05 59 39.415   +22 12 36.13  .41355 1.3488 146.6 22.1  39d  83
2025 01 23 12  05 59 41.970   +22 13 01.91  .41368 1.3488 146.5 22.1  39d  83
2025 01 23 13  05 59 44.530   +22 13 27.68  .41381 1.3489 146.5 22.1  39d  83
2025 01 23 14  05 59 47.094   +22 13 53.43  .41395 1.3489 146.5 22.1  39d  83
2025 01 23 15  05 59 49.664   +22 14 19.17  .41408 1.3489 146.4 22.1  39d  83
2025 01 23 16  05 59 52.239   +22 14 44.89  .41422 1.3490 146.4 22.1  39d  83
2025 01 23 17  05 59 54.818   +22 15 10.59  .41435 1.3490 146.4 22.1  39d  83
2025 01 23 18  05 59 57.403   +22 15 36.28  .41449 1.3490 146.3 22.1  39d  83
2025 01 23 19  05 59 59.992   +22 16 01.95  .41462 1.3491 146.3 22.1  39d  83
2025 01 23 20  06 00 02.586   +22 16 27.60  .41476 1.3491 146.3 22.1  39d  83
2025 01 23 21  06 00 05.186   +22 16 53.24  .41489 1.3491 146.2 22.1  39d  83
2025 01 23 22  06 00 07.790   +22 17 18.86  .41503 1.3492 146.2 22.1  39d  83
2025 01 23 23  06 00 10.399   +22 17 44.46  .41517 1.3492 146.2 22.1  39d  83
2025 01 24 00  06 00 13.014   +22 18 10.05  .41530 1.3492 146.1 22.1  39d  83
2025 01 24 01  06 00 15.633   +22 18 35.62  .41544 1.3493 146.1 22.1  39d  83
2025 01 24 02  06 00 18.257   +22 19 01.17  .41558 1.3493 146.1 22.1  39d  83
2025 01 24 03  06 00 20.886   +22 19 26.71  .41571 1.3494 146.0 22.1  39d  83
2025 01 24 04  06 00 23.520   +22 19 52.23  .41585 1.3494 146.0 22.1  39d  83
2025 01 24 05  06 00 26.159   +22 20 17.73  .41599 1.3494 146.0 22.1  39d  83
2025 01 24 06  06 00 28.803   +22 20 43.22  .41613 1.3495 145.9 22.1  39d  83
2025 01 24 07  06 00 31.452   +22 21 08.69  .41626 1.3495 145.9 22.1  39d  83
2025 01 24 08  06 00 34.106   +22 21 34.14  .41640 1.3495 145.9 22.1  39d  83
2025 01 24 09  06 00 36.765   +22 21 59.57  .41654 1.3496 145.9 22.1  39d  83
2025 01 24 10  06 00 39.429   +22 22 24.99  .41668 1.3496 145.8 22.1  39d  83
2025 01 24 11  06 00 42.098   +22 22 50.39  .41682 1.3496 145.8 22.1  39d  83
2025 01 24 12  06 00 44.771   +22 23 15.78  .41695 1.3497 145.8 22.1  39d  83
2025 01 24 13  06 00 47.450   +22 23 41.14  .41709 1.3497 145.7 22.1  39d  83
2025 01 24 14  06 00 50.134   +22 24 06.49  .41723 1.3497 145.7 22.1  39d  83
2025 01 24 15  06 00 52.822   +22 24 31.82  .41737 1.3498 145.7 22.1  39d  83
2025 01 24 16  06 00 55.516   +22 24 57.14  .41751 1.3498 145.6 22.1  39d  83
2025 01 24 17  06 00 58.214   +22 25 22.44  .41765 1.3499 145.6 22.1  39d  83
2025 01 24 18  06 01 00.918   +22 25 47.72  .41779 1.3499 145.6 22.1  39d  83
2025 01 24 19  06 01 03.626   +22 26 12.98  .41793 1.3499 145.5 22.1  39d  83
2025 01 24 20  06 01 06.339   +22 26 38.22  .41807 1.3500 145.5 22.1  39d  83
2025 01 24 21  06 01 09.058   +22 27 03.45  .41821 1.3500 145.5 22.1  39d  83
2025 01 24 22  06 01 11.781   +22 27 28.66  .41835 1.3500 145.4 22.1  39d  83
2025 01 24 23  06 01 14.509   +22 27 53.85  .41849 1.3501 145.4 22.1  39d  83